When you browse on this site, cookies collect data to enhance your experience and personalize the content and advertising you see.
Visit our Privacy Policy to learn more. By continuing to use the site, you agree to this use of cookies and data.
  • în România
  • Lista ţărilor
  • Pe 7 zile
  • Temperatura apei
  • Meteo pe hartă
  • Widget-uri
  • user-avatar
    Intrare

    Meteo pe oră la Środa Wielkopolska

    Astăzi, 21 August, Miercuri

    Timp Temperatura Precipitaţii Vânt Presiune Umiditate
    00:00 +17°C° 4.3 mm 5 m/s 757 mmHg 83%
    01:00 +16°C° 4.3 mm 6 m/s 758 mmHg 92%
    02:00 +15°C° 1.8 mm 6 m/s 758 mmHg 91%
    03:00 +15°C° 1.8 mm 6 m/s 758 mmHg 90%
    04:00 +15°C° 1.8 mm 5 m/s 758 mmHg 89%
    05:00 +15°C° 0.5 mm 5 m/s 759 mmHg 89%
    06:00 +15°C° 0.5 mm 4 m/s 760 mmHg 89%
    07:00 +16°C° 0.5 mm 3 m/s 760 mmHg 89%
    08:00 +17°C° 0 mm 3 m/s 761 mmHg 86%
    09:00 +17°C° 0 mm 2 m/s 761 mmHg 83%
    10:00 +18°C° 0 mm 2 m/s 761 mmHg 80%
    11:00 +19°C° 0.1 mm 2 m/s 761 mmHg 74%
    12:00 +20°C° 0.1 mm 2 m/s 761 mmHg 68%
    13:00 +21°C° 0.1 mm 2 m/s 761 mmHg 63%
    14:00 +21°C° 0.1 mm 2 m/s 761 mmHg 61%
    15:00 +22°C° 0.1 mm 3 m/s 761 mmHg 59%
    16:00 +22°C° 0.1 mm 3 m/s 761 mmHg 57%
    17:00 +21°C° 0 mm 2 m/s 761 mmHg 62%
    18:00 +20°C° 0 mm 2 m/s 761 mmHg 66%
    19:00 +19°C° 0 mm 1 m/s 762 mmHg 71%
    20:00 +19°C° 0 mm 1 m/s 762 mmHg 72%
    21:00 +18°C° 0 mm 1 m/s 762 mmHg 74%
    22:00 +18°C° 0 mm 1 m/s 762 mmHg 75%
    23:00 +16°C° 0 mm 1 m/s 763 mmHg 76%

    Mâine, 22 August, Joi

    Timp Temperatura Precipitaţii Vânt Presiune Umiditate
    00:00 +16°C° 0 mm 1 m/s 763 mmHg 77%
    01:00 +15°C° 0 mm 1 m/s 763 mmHg 78%
    02:00 +15°C° 0 mm 1 m/s 763 mmHg 79%
    03:00 +15°C° 0 mm 1 m/s 763 mmHg 81%
    04:00 +14°C° 0 mm 1 m/s 762 mmHg 82%
    05:00 +15°C° 0 mm 1 m/s 763 mmHg 79%
    06:00 +16°C° 0 mm 1 m/s 763 mmHg 76%
    07:00 +18°C° 0 mm 1 m/s 763 mmHg 73%
    08:00 +20°C° 0 mm 1 m/s 763 mmHg 67%
    09:00 +20°C° 0 mm 2 m/s 763 mmHg 61%
    10:00 +23°C° 0 mm 2 m/s 763 mmHg 55%
    11:00 +23°C° 0 mm 2 m/s 763 mmHg 52%
    12:00 +24°C° 0 mm 2 m/s 763 mmHg 49%
    13:00 +25°C° 0 mm 2 m/s 762 mmHg 46%
    14:00 +25°C° 0 mm 2 m/s 762 mmHg 47%
    15:00 +25°C° 0 mm 2 m/s 762 mmHg 47%
    16:00 +25°C° 0 mm 2 m/s 761 mmHg 48%
    17:00 +24°C° 0 mm 2 m/s 761 mmHg 53%
    18:00 +21°C° 0 mm 2 m/s 761 mmHg 58%
    19:00 +20°C° 0 mm 2 m/s 761 mmHg 64%
    20:00 +19°C° 0 mm 2 m/s 762 mmHg 66%
    21:00 +18°C° 0 mm 2 m/s 762 mmHg 68%
    22:00 +17°C° 0 mm 2 m/s 762 mmHg 70%
    23:00 +17°C° 0 mm 2 m/s 762 mmHg 70%

    Poimâine, 23 August, Vineri

    Timp Temperatura Precipitaţii Vânt Presiune Umiditate
    00:00 +17°C° 0 mm 2 m/s 762 mmHg 70%
    01:00 +16°C° 0 mm 2 m/s 762 mmHg 71%
    02:00 +16°C° 0 mm 2 m/s 762 mmHg 72%
    03:00 +15°C° 0 mm 2 m/s 762 mmHg 74%
    04:00 +15°C° 0 mm 2 m/s 762 mmHg 75%
    05:00 +16°C° 0 mm 2 m/s 762 mmHg 73%
    06:00 +17°C° 0 mm 2 m/s 762 mmHg 72%
    07:00 +18°C° 0 mm 3 m/s 762 mmHg 70%
    08:00 +20°C° 0 mm 3 m/s 762 mmHg 64%
    09:00 +21°C° 0 mm 3 m/s 762 mmHg 58%
    10:00 +24°C° 0 mm 3 m/s 762 mmHg 52%
    11:00 +25°C° 0 mm 3 m/s 762 mmHg 48%
    12:00 +26°C° 0 mm 3 m/s 762 mmHg 44%
    13:00 +27°C° 0 mm 4 m/s 761 mmHg 40%
    14:00 +27°C° 0 mm 4 m/s 761 mmHg 40%
    15:00 +27°C° 0 mm 4 m/s 761 mmHg 40%
    16:00 +27°C° 0 mm 4 m/s 761 mmHg 41%
    17:00 +25°C° 0 mm 3 m/s 761 mmHg 46%
    18:00 +22°C° 0 mm 3 m/s 760 mmHg 51%
    19:00 +21°C° 0 mm 3 m/s 760 mmHg 57%
    20:00 +20°C° 0 mm 3 m/s 760 mmHg 58%
    21:00 +19°C° 0 mm 3 m/s 761 mmHg 59%
    22:00 +19°C° 0 mm 3 m/s 761 mmHg 61%
    23:00 +18°C° 0 mm 3 m/s 761 mmHg 63%

    24 August, Sâmbătă

    Timp Temperatura Precipitaţii Vânt Presiune Umiditate
    00:00 +18°C° 0 mm 3 m/s 760 mmHg 65%
    01:00 +17°C° 0 mm 3 m/s 760 mmHg 68%
    02:00 +17°C° 0 mm 3 m/s 760 mmHg 71%
    03:00 +17°C° 0 mm 3 m/s 760 mmHg 73%
    04:00 +16°C° 0 mm 3 m/s 760 mmHg 76%
    05:00 +17°C° 0 mm 3 m/s 760 mmHg 73%
    06:00 +18°C° 0 mm 3 m/s 760 mmHg 71%
    07:00 +19°C° 0 mm 4 m/s 760 mmHg 68%
    08:00 +20°C° 0 mm 4 m/s 760 mmHg 62%
    09:00 +22°C° 0 mm 4 m/s 760 mmHg 57%
    10:00 +25°C° 0 mm 4 m/s 760 mmHg 51%
    11:00 +26°C° 0 mm 4 m/s 759 mmHg 48%
    12:00 +27°C° 0 mm 4 m/s 759 mmHg 46%
    13:00 +28°C° 0 mm 4 m/s 759 mmHg 44%
    14:00 +28°C° 0 mm 4 m/s 758 mmHg 44%
    15:00 +28°C° 0 mm 4 m/s 758 mmHg 44%
    16:00 +28°C° 0 mm 4 m/s 758 mmHg 44%
    17:00 +26°C° 0 mm 4 m/s 758 mmHg 49%
    18:00 +25°C° 0 mm 4 m/s 757 mmHg 54%
    19:00 +22°C° 0 mm 4 m/s 757 mmHg 60%
    20:00 +22°C° 0 mm 4 m/s 757 mmHg 60%
    21:00 +21°C° 0 mm 4 m/s 757 mmHg 61%
    22:00 +21°C° 0 mm 4 m/s 758 mmHg 62%
    23:00 +20°C° 0 mm 4 m/s 757 mmHg 63%

    25 August, Duminică

    Timp Temperatura Precipitaţii Vânt Presiune Umiditate
    00:00 +20°C° 0 mm 4 m/s 757 mmHg 65%
    01:00 +20°C° 0 mm 4 m/s 757 mmHg 66%
    02:00 +20°C° 0.1 mm 4 m/s 757 mmHg 68%
    03:00 +19°C° 0.1 mm 4 m/s 757 mmHg 70%
    04:00 +19°C° 0.1 mm 4 m/s 757 mmHg 72%
    05:00 +19°C° 0.1 mm 4 m/s 757 mmHg 72%
    06:00 +20°C° 0.1 mm 4 m/s 757 mmHg 72%
    07:00 +20°C° 0.1 mm 5 m/s 757 mmHg 72%
    08:00 +21°C° 0 mm 5 m/s 757 mmHg 68%
    09:00 +22°C° 0 mm 5 m/s 757 mmHg 64%
    10:00 +25°C° 0 mm 5 m/s 757 mmHg 60%
    11:00 +25°C° 0 mm 4 m/s 757 mmHg 61%
    12:00 +25°C° 0 mm 4 m/s 757 mmHg 62%
    13:00 +25°C° 0 mm 4 m/s 756 mmHg 63%
    14:00 +25°C° 0.1 mm 4 m/s 756 mmHg 63%
    15:00 +26°C° 0.1 mm 4 m/s 756 mmHg 63%
    16:00 +26°C° 0.1 mm 4 m/s 756 mmHg 62%
    17:00 +26°C° 0 mm 4 m/s 756 mmHg 64%
    18:00 +25°C° 0 mm 4 m/s 756 mmHg 66%
    19:00 +25°C° 0 mm 4 m/s 755 mmHg 67%
    20:00 +23°C° 0 mm 4 m/s 756 mmHg 68%
    21:00 +23°C° 0 mm 4 m/s 756 mmHg 70%
    22:00 +22°C° 0 mm 4 m/s 756 mmHg 71%
    23:00 +22°C° 0.3 mm 4 m/s 756 mmHg 74%

    26 August, Luni

    Timp Temperatura Precipitaţii Vânt Presiune Umiditate
    00:00 +22°C° 0.3 mm 3 m/s 756 mmHg 78%
    01:00 +21°C° 0.3 mm 3 m/s 756 mmHg 82%
    02:00 +21°C° 0 mm 3 m/s 756 mmHg 83%
    03:00 +21°C° 0 mm 3 m/s 755 mmHg 84%
    04:00 +21°C° 0 mm 4 m/s 755 mmHg 85%
    05:00 +21°C° 0 mm 4 m/s 755 mmHg 84%
    06:00 +21°C° 0 mm 3 m/s 755 mmHg 84%
    07:00 +22°C° 0 mm 3 m/s 755 mmHg 83%
    08:00 +24°C° 0 mm 3 m/s 756 mmHg 79%
    09:00 +25°C° 0 mm 3 m/s 756 mmHg 75%
    10:00 +26°C° 0 mm 3 m/s 756 mmHg 71%
    11:00 +27°C° 0 mm 3 m/s 756 mmHg 64%
    12:00 +29°C° 0 mm 2 m/s 756 mmHg 58%
    13:00 +31°C° 0 mm 2 m/s 756 mmHg 51%
    14:00 +31°C° 0 mm 2 m/s 756 mmHg 51%
    15:00 +31°C° 0 mm 2 m/s 755 mmHg 50%
    16:00 +31°C° 0 mm 3 m/s 755 mmHg 49%
    17:00 +30°C° 0.4 mm 2 m/s 755 mmHg 55%
    18:00 +28°C° 0.4 mm 2 m/s 755 mmHg 60%
    19:00 +27°C° 0.4 mm 2 m/s 755 mmHg 66%
    20:00 +26°C° 0.3 mm 1 m/s 756 mmHg 68%
    21:00 +25°C° 0.3 mm 1 m/s 756 mmHg 70%
    22:00 +24°C° 0.3 mm 1 m/s 756 mmHg 72%
    23:00 +24°C° 0.1 mm 1 m/s 756 mmHg 75%
    Arată mai mult